Regional Weather Roundup
Issued by NWS

Home | Current Version | Previous Version | Text Only | Print | Product List | Glossary On
Versions: 1 2 3 4 5 6 7 8 9 10 11 12 13 14 15 16 17 18 19 20 21 22 23 24 25 26 27 28 29 30 31 32 33 34 35 36 37 38 39 40 41 42 43 44 45 46 47 48 49 50
000
ASUS43 KLMK 011810
RWRKY
KENTUCKY REGIONAL WEATHER ROUNDUP
NATIONAL WEATHER SERVICE LOUISVILLE KY
100 PM EST SUN FEB 01 2015

NOTE "FAIR" INDICATES FEW OR NO CLOUDS BELOW 12,000 FEET
WITH NO SIGNIFICANT WEATHER AND/OR OBSTRUCTIONS TO VISIBILITY.

KYZ001>023-026-027-061>063-070>075-011900-
WESTERN AND SOUTH CENTRAL KENTUCKY

CITY           SKY/WX    TMP DP  RH WIND       PRES   REMARKS
PADUCAH        LGT RAIN  49  47  93 S8        29.70F FOG
HENDERSON      CLOUDY    45  39  81 S7        29.73F
OWENSBORO      LGT RAIN  44  43  97 S10       29.76F FOG
HOPKINSVILLE   LGT RAIN  48  46  93 S14G23    29.75F FOG
BOWLING GREEN  HVY RAIN  47  42  83 S10G21    29.80F
GLASGOW        LGT RAIN  44  40  86 S15G21    29.80F
$$

KYZ024-025-028>034-038-045-046-053-011900-
NORTH CENTRAL KENTUCKY

CITY           SKY/WX    TMP DP  RH WIND       PRES   REMARKS
LOUISVILLE/SDF RAIN      45  40  82 S17G28    29.77F
LOUISVILLE/LOU RAIN      45  40  82 S12G20    29.78F
FORT KNOX      LGT RAIN  43  40  89 S17G24    29.76F
$$

KYZ035>037-039>044-047>052-055>060-089>105-011900-
NORTHEAST KENTUCKY

CITY           SKY/WX    TMP DP  RH WIND       PRES   REMARKS
LEXINGTON      LGT RAIN  41  34  76 S17       29.84F
COVINGTON      RAIN      42  35  76 S16       29.79F
FRANKFORT      LGT RAIN  43  37  79 S16G24    29.81F
$$

KYZ054-064>069-076>088-106>120-011900-
SOUTHEAST KENTUCKY

CITY           SKY/WX    TMP DP  RH WIND       PRES   REMARKS
JACKSON        CLOUDY    48  18  30 MISG      29.92F
LONDON         LGT RAIN  48  26  42 S10G18    29.91F
SOMERSET       DRIZZLE   45  34  65 S13G20    29.88F
MIDDLESBORO    CLOUDY    45  19  35 SE7       29.99F
MONTICELLO     CLOUDY    47  37  68 S14       29.89F
$$




USA.gov is the U.S. government's official web portal to all federal, state and local government web resources and services.